C/2014 F1 ( Hill )

Japanese version
Home page
Updated on May 8, 2015

---------------------------------------------------------------------

* Profile

Discovery Date March 29, 2014
Magnitude 18.6 mag
Discoverer R. E. Hill (Catalina Sky Survey)

* Pictures

* Orbital Elements

Epoch 2013 Sept. 25.0 TT = JDT 2456560.5
T 2013 Oct. 4.84366 TT                                  MPC
q   3.4961079            (2000.0)            P               Q
z  +0.0002621      Peri.    8.24273     -0.53515468     -0.19631395
 +/-0.0000205      Node   239.90195     -0.81907194     -0.11741901
e   0.9990838      Incl.  108.25489     -0.20671390     +0.97348529
From 164 observations 2014 Mar. 29-July 18, mean residual 0".5.

* Magnitudes Graph

        m1 = 10.0 + 5 log d + 10.0 log r

---------------------------------------------------------------------

The orbital elements are published on M.P.E.C. 2014-V27.
The magnitudes graphs are made with Comet for Windows.

---------------------------------------------------------------------

Copyright(C) Seiichi Yoshida (comet@aerith.net). All rights reserved.